Regional Weather Roundup
Issued by NWS

Home | Current Version | Previous Version | Graphics & Text | Print | Product List | Glossary On
Versions: 1 2 3 4 5 6 7 8 9 10 11 12 13 14 15 16 17 18 19 20 21 22 23 24 25 26 27 28 29 30 31 32 33 34 35 36 37 38 39 40 41 42 43 44 45 46 47 48 49 50
000
ASUS45 KBOU 011507
RWRCO

WEATHER ROUNDUP FOR COLORADO
NATIONAL WEATHER SERVICE DENVER/BOULDER CO
900 AM MDT FRI AUG 01 2014

NOTE: "FAIR" INDICATES FEW OR NO CLOUDS BELOW 12000 FEET WITH NO
SIGNIFICANT WEATHER AND/OR OBSTRUCTIONS TO VISIBILITY.

COZ001>005-013-030-031-011600-
...NORTHWEST COLORADO...

CITY           SKY/WX    TMP DP  RH WIND       PRES   REMARKS
CRAIG          CLOUDY    58  51  78 W6        30.29R
HAYDEN         PTSUNNY   63  45  51 SE6       30.31R
MEEKER         MOSUNNY   59  52  77 CALM      30.32R
MOUNT WERNER   NOT AVBL
STEAMBOAT SPGS MOSUNNY   60  47  61 W3        30.32S
WALDEN         SUNNY     54  41  62 CALM      30.42S
$$

COZ006>008-011-011600-
...WEST CENTRAL VALLEYS...

CITY           SKY/WX    TMP DP  RH WIND       PRES   REMARKS
GRAND JUNCTION PTSUNNY   69  55  60 W3        30.21R
MONTROSE       MOSUNNY   69  52  54 VRB3      30.29R
EAGLE          NOT AVBL
RIFLE          PTSUNNY   70  51  51 VRB3      30.25R
DELTA          MOSUNNY   73  54  49 E6        30.25S
NUCLA          MOSUNNY   64  54  68 E5        30.32S
$$

COZ017>023-064>068-011600-
...SOUTHWEST COLORADO...

CITY           SKY/WX    TMP DP  RH WIND       PRES   REMARKS
DURANGO        CLOUDY    64  51  62 E3        30.34S
CORTEZ         MOSUNNY   66  55  67 NE3       30.28S
PAGOSA SPRINGS MOSUNNY   57  55  93 CALM      30.41S
TELLURIDE      NOT AVBL
WOLF CREEK PAS NOT AVBL
$$

COZ009-010-012-014-032>034-037-058>063-011600-
...CENTRAL COLORADO...

CITY           SKY/WX    TMP DP  RH WIND       PRES   REMARKS
ASPEN          CLOUDY    55  52  89 N5        30.39S
BUENA VISTA    CLOUDY    55  51  85 CALM      30.45S
COPPER MTN     CLOUDY    46  41  81 S15       30.64S
BERTHOUD PASS  CLOUDY    36  36 100 E16       30.69R
COTTONWOOD PAS FOG       54  50  87 CALM      30.55R VSB 3/4
GUNNISON       PTSUNNY   54  48  82 NE7       30.45R
KREMMLING      PTSUNNY   55  41  58 CALM      30.41S
LEADVILLE      LGT RAIN  48  46  93 CALM        N/A
MONARCH PASS   FOG       43  41  93 CALM      30.76R VSB<1/4
SALIDA         PTSUNNY   58  53  85 CALM      30.50R
SUNLIGHT       CLOUDY    52  46  82 CALM      30.59R
WILKERSON PASS PTSUNNY   46  41  81 CALM      30.65R
$$

COZ069>075-011600-
...SAN LUIS VALLEY/SANGRE DE CRISTO MOUNTAINS...

CITY           SKY/WX    TMP DP  RH WIND       PRES   REMARKS
ALAMOSA        PTSUNNY   59  52  77 E6        30.40S
LA VETA PASS   NOT AVBL
SAGUACHE       PTSUNNY   59  50  72 CALM      30.43S
$$

COZ035-036-038>040-011600-
...NORTHERN COLORADO FRONT RANGE...

CITY           SKY/WX    TMP DP  RH WIND       PRES   REMARKS
DENVER INTL AP MOSUNNY   68  53  58 SW7       30.29R
DMNS CITY PARK   N/A     68  52  56 SW2       30.30S
AURORA         MOSUNNY   66  55  67 W5        30.32R
FRONT RANGE AP PTSUNNY   72  55  56 SW6       30.31
ERIE MUNI ARPT MOSUNNY   67  52  58 CALM      30.28S
BOULDER MUN AP MOSUNNY   68  46  45 CALM      30.29S
CENTENNIAL     PTSUNNY   67  51  56 CALM      30.32R
BROOMFIELD     PTSUNNY   66  48  52 CALM      30.31S
FORT COLLINS   MOSUNNY   68  52  56 N3        30.29S
LONGMONT       MOSUNNY   70  50  50 CALM      30.29S
$$

COZ041-046-047-076>085-087-088-011600-
...PIKES PEAK/PALMER DIVIDE AND SOUTHERN FOOTHILLS...

CITY           SKY/WX    TMP DP  RH WIND       PRES   REMARKS
COLO. SPRINGS  PTSUNNY   63  56  78 NE3       30.36R
A. F. ACADEMY  PTSUNNY   57  53  84 N6        30.37R
ELLICOTT       PTSUNNY   64  54  69 W6        30.34R
FALCON         CLOUDY    61  51  71 CALM      30.39S
FORT CARSON    PTSUNNY   62  53  72 N7        30.34R
LIMON          MOSUNNY   67  56  67 CALM      30.30S
MONUMENT HILL  PTSUNNY   63  48  59 CALM      30.38R
TRINIDAD       CLOUDY    64  55  72 NW6       30.32R
$$

COZ042>045-048>051-090-091-011600-
...NORTHEAST COLORADO...

CITY           SKY/WX    TMP DP  RH WIND       PRES   REMARKS
GREELEY ARPT   NOT AVBL
AKRON          SUNNY     70  55  59 W6        30.25R
BURLINGTON     SUNNY     76  51  41 W7        30.24R
WRAY             N/A     75  58  55 W3        30.20R
STERLING       SUNNY     68  61  77 S3        30.21S
HOLYOKE        SUNNY     77  61  57 W3        30.20R
FORT MORGAN    SUNNY     68  56  63 W9        30.25S
$$

COZ086-089-092>099-011600-
...SOUTHEAST COLORADO...

CITY           SKY/WX    TMP DP  RH WIND       PRES   REMARKS
PUEBLO         MOSUNNY   69  59  70 CALM      30.27R
LA JUNTA       SUNNY     69  53  56 CALM      30.25R
LAMAR          SUNNY     69  57  65 CALM      30.21S
SPRINGFIELD      N/A     72  55  55 W9        30.25R
$$


USA.gov is the U.S. government's official web portal to all federal, state and local government web resources and services.